Location: Caltech
(34.1382°N, 118.1253°W)
Time: 00:47:15
(UTC-07:00)

Iridium 12 - Visible Passes

Search period start: 27 July 2016 00:00
Search period end: 06 August 2016 00:00
Orbit: 776 x 779 km, 86.4° (Epoch: 26 July)

Date Brightness Start Highest point End Pass type
(mag) Time Alt. Az. Time Alt. Az. Time Alt. Az.
27 Jul 7.6 01:19:09 10° NNW 01:21:08 21° NW 01:21:08 21° NW visible
28 Jul 7.4 00:45:15 10° N 00:47:38 27° NNW 00:47:38 27° NNW visible
29 Jul 7.3 00:11:46 10° N 00:14:08 27° NNE 00:14:08 27° NNE visible
29 Jul 7.6 23:38:42 10° NNE 23:40:39 20° NE 23:40:39 20° NE visible
30 Jul 7.9 01:19:43 10° NNW 01:21:07 16° NW 01:21:07 16° NW visible
30 Jul 7.9 23:06:21 10° NE 23:07:10 12° NE 23:07:10 12° NE visible
31 Jul 7.6 00:45:31 10° NNW 00:47:38 23° NNW 00:47:38 23° NNW visible
01 Aug 7.4 00:11:48 10° N 00:14:09 27° N 00:14:09 27° N visible
01 Aug 7.4 23:38:28 10° NNE 23:40:41 24° NNE 23:40:41 24° NNE visible
02 Aug 8.2 01:20:38 10° NW 01:21:09 12° NW 01:21:09 12° NW visible
02 Aug 7.7 23:05:37 10° NNE 23:07:13 17° NE 23:07:13 17° NE visible
03 Aug 7.8 00:45:57 10° NNW 00:47:41 19° NW 00:47:41 19° NW visible
04 Aug 7.5 00:11:58 10° N 00:14:13 26° NNW 00:14:13 26° NNW visible
04 Aug 7.3 23:38:24 10° N 23:40:45 27° N 23:40:45 27° N visible
05 Aug 7.4 23:05:14 10° NNE 23:07:18 22° NNE 23:07:18 22° NNE visible
